Terug naar catalogus

STARLINK-37859

ActiefCommunicatieSSO
NORAD 69553·PAYLOAD·🇺🇸 United States

Gelanceerd Jun 15, 2026 vanaf Vandenberg Space Force Base

Loading…

Volgende Passages (komende 24 uur)

TLE

VersSource: CelesTrak SupGP

Epoch: Sep 15, 2026, 03:13 UTC

1 69553C 26135H   26258.13451389 -.00043761  00000+0 -13584-2 0  2585
2 69553  97.2834 285.8750 0001050  84.0934  14.5735 15.33463836    10

Volg STARLINK-37859 in realtime met AllMySat

Download on the App Store